Coatesville, PA

8:10 AM EST on December 11, 2016 (GMT -0500)
Chester County Carlson

Weather History for KMQS - November, 2013

Change the Weather History Date:

Saturday, November 9, 2013

  Actual Average (KILG) Record (KILG)
Temperature  
Mean Temperature 40 °F -  
Max Temperature 50 °F 58 °F 76 °F (1895)
Min Temperature 30 °F 39 °F 24 °F (1971)
Degree Days  
Heating Degree Days 25    
Moisture  
Dew Point 28 °F    
Average Humidity 64    
Maximum Humidity 86    
Minimum Humidity 43    
Precipitation  
Precipitation 0.00 in - - ()
Sea Level Pressure  
Sea Level Pressure 30.21 in    
Wind  
Wind Speed 5 mph (SW)    
Max Wind Speed 8 mph    
Max Gust Speed -    
Visibility 10 miles    
Events      
Averages and records for this station are not official NWS values.
T = Trace of Precipitation, MM = Missing Value Source: NWS Daily Summary

Daily Weather History Graph

Daily Weather History Graph

Search for Another Location

Airport or City:

Trip Planner

Search our weather history database for the weather conditions in past years. The results will help you decide how hot, cold, wet, or windy it might be!

Date:

Astronomy

Nov. 09, 2013 Rise Set
Actual Time 6:41 AM EST 4:52 PM EST
Civil Twilight 6:13 AM EST 5:20 PM EST
Nautical Twilight 5:40 AM EST 5:53 PM EST
Astronomical Twilight 5:09 AM EST 6:25 PM EST
Moon 12:17 PM EST (11/9) 11:19 PM EST (11/9)
Length of Visible Light 11h 07m
Length of Day
10h 10m
Waxing Crescent, 44% of the Moon is Illuminated
Nov 9
Waxing Crescent
Nov 10
First Quarter
Nov 17
Full
Nov 25
Last Quarter
Dec 2
New

Hourly Weather History & Observations

Time (EST) Temp. Windchill Dew Point Humidity Pressure Visibility Wind Dir Wind Speed Gust Speed Precip Events Conditions
12:15 AM 32.0 °F 25.6 °F 26.6 °F 80% 30.29 in 10.0 mi WNW 6.9 mph - N/A   Clear
12:35 AM 32.0 °F 25.6 °F 26.6 °F 80% 30.28 in 10.0 mi WNW 6.9 mph - N/A   Clear
12:55 AM 32.0 °F 25.6 °F 26.6 °F 80% 30.29 in 10.0 mi WNW 6.9 mph - N/A   Clear
1:15 AM 33.8 °F 27.0 °F 26.6 °F 75% 30.29 in 10.0 mi WNW 8.1 mph - N/A   Clear
1:35 AM 33.8 °F 27.7 °F 26.6 °F 75% 30.29 in 10.0 mi West 6.9 mph - N/A   Clear
1:55 AM 32.0 °F 26.4 °F 26.6 °F 80% 30.30 in 10.0 mi WNW 5.8 mph - N/A   Clear
2:15 AM 33.8 °F 28.6 °F 26.6 °F 75% 30.29 in 10.0 mi WNW 5.8 mph - N/A   Clear
2:35 AM 32.0 °F 27.5 °F 26.6 °F 80% 30.29 in 10.0 mi West 4.6 mph - N/A   Clear
2:55 AM 33.8 °F 30.8 °F 26.6 °F 75% 30.30 in 10.0 mi SW 3.5 mph - N/A   Clear
3:15 AM 32.0 °F 27.5 °F 26.6 °F 80% 30.30 in 10.0 mi West 4.6 mph - N/A   Clear
3:35 AM 30.2 °F 24.3 °F 26.6 °F 86% 30.30 in 10.0 mi WNW 5.8 mph - N/A   Clear
3:55 AM 32.0 °F 26.4 °F 26.6 °F 80% 30.30 in 10.0 mi West 5.8 mph - N/A   Clear
4:15 AM 32.0 °F 27.5 °F 26.6 °F 80% 30.31 in 10.0 mi West 4.6 mph - N/A   Clear
4:35 AM 32.0 °F 26.4 °F 26.6 °F 80% 30.31 in 10.0 mi West 5.8 mph - N/A   Clear
4:55 AM 30.2 °F 25.4 °F 24.8 °F 80% 30.31 in 10.0 mi WNW 4.6 mph - N/A   Clear
5:15 AM 30.2 °F 26.7 °F 26.6 °F 86% 30.31 in 10.0 mi WNW 3.5 mph - N/A   Clear
5:35 AM 32.0 °F 27.5 °F 26.6 °F 80% 30.31 in 10.0 mi WNW 4.6 mph - N/A   Clear
5:55 AM 32.0 °F 27.5 °F 26.6 °F 80% 30.32 in 10.0 mi West 4.6 mph - N/A   Clear
6:15 AM 32.0 °F 27.5 °F 26.6 °F 80% 30.32 in 10.0 mi WNW 4.6 mph - N/A   Clear
6:35 AM 32.0 °F 26.4 °F 26.6 °F 80% 30.32 in 10.0 mi West 5.8 mph - N/A   Clear
6:55 AM 32.0 °F 27.5 °F 26.6 °F 80% 30.32 in 10.0 mi WNW 4.6 mph - N/A   Clear
7:15 AM 33.8 °F 30.8 °F 26.6 °F 75% 30.31 in 10.0 mi WNW 3.5 mph - N/A   Clear
7:35 AM 35.6 °F 31.7 °F 28.4 °F 75% 30.32 in 10.0 mi West 4.6 mph - N/A   Clear
7:55 AM 35.6 °F 31.7 °F 28.4 °F 75% 30.33 in 10.0 mi WNW 4.6 mph - N/A   Clear
8:15 AM 37.4 °F 32.8 °F 28.4 °F 70% 30.33 in 10.0 mi West 5.8 mph - N/A   Clear
8:35 AM 39.2 °F 35.0 °F 30.2 °F 70% 30.33 in 10.0 mi West 5.8 mph - N/A   Clear
8:55 AM 39.2 °F 35.9 °F 28.4 °F 65% 30.33 in 10.0 mi West 4.6 mph - N/A   Clear
9:15 AM 41.0 °F 38.0 °F 28.4 °F 61% 30.33 in 10.0 mi West 4.6 mph - N/A   Clear
9:35 AM 42.8 °F 39.3 °F 28.4 °F 57% 30.32 in 10.0 mi WNW 5.8 mph - N/A   Clear
9:55 AM 42.8 °F 40.1 °F 26.6 °F 53% 30.32 in 10.0 mi West 4.6 mph - N/A   Clear
10:15 AM 44.6 °F 43.1 °F 28.4 °F 53% 30.31 in 10.0 mi West 3.5 mph - N/A   Clear
10:35 AM 44.6 °F 42.2 °F 26.6 °F 49% 30.30 in 10.0 mi WSW 4.6 mph - N/A   Clear
10:55 AM 44.6 °F 42.2 °F 28.4 °F 53% 30.29 in 10.0 mi SSW 4.6 mph - N/A   Clear
11:15 AM 46.4 °F 44.3 °F 24.8 °F 43% 30.28 in 10.0 mi SSW 4.6 mph - N/A   Clear
11:35 AM 44.6 °F 41.4 °F 24.8 °F 46% 30.27 in 10.0 mi SSW 5.8 mph - N/A   Clear
11:55 AM 46.4 °F 45.2 °F 26.6 °F 46% 30.26 in 10.0 mi WSW 3.5 mph - N/A   Clear
12:15 PM 46.4 °F 43.5 °F 28.4 °F 50% 30.25 in 10.0 mi SW 5.8 mph - N/A   Clear
12:35 PM 48.2 °F - 28.4 °F 46% 30.23 in 10.0 mi SSW 5.8 mph - N/A   Clear
12:55 PM 48.2 °F - 28.4 °F 46% 30.22 in 10.0 mi SW 5.8 mph - N/A   Clear
1:15 PM 50.0 °F - 28.4 °F 43% 30.20 in 10.0 mi SW 4.6 mph - N/A   Clear
1:35 PM 48.2 °F - 28.4 °F 46% 30.19 in 10.0 mi South 6.9 mph - N/A   Clear
1:55 PM 50.0 °F - 28.4 °F 43% 30.18 in 10.0 mi SSW 4.6 mph - N/A   Clear
2:15 PM 50.0 °F - 28.4 °F 43% 30.17 in 10.0 mi SSW 6.9 mph - N/A   Clear
2:35 PM 50.0 °F - 28.4 °F 43% 30.16 in 10.0 mi SSE 6.9 mph - N/A   Clear
2:55 PM 48.2 °F - 28.4 °F 46% 30.15 in 10.0 mi SSE 6.9 mph - N/A   Clear
3:15 PM 50.0 °F - 28.4 °F 43% 30.15 in 10.0 mi South 5.8 mph - N/A   Clear
3:35 PM 48.2 °F - 28.4 °F 46% 30.14 in 10.0 mi South 5.8 mph - N/A   Clear
3:55 PM 48.2 °F - 28.4 °F 46% 30.14 in 10.0 mi SSW 5.8 mph - N/A   Partly Cloudy
4:15 PM 46.4 °F 42.4 °F 28.4 °F 50% 30.14 in 10.0 mi South 8.1 mph - N/A   Clear
4:35 PM 46.4 °F 44.3 °F 28.4 °F 50% 30.14 in 10.0 mi South 4.6 mph - N/A   Clear
4:55 PM 46.4 °F 42.9 °F 28.4 °F 50% 30.13 in 10.0 mi South 6.9 mph - N/A   Clear
5:15 PM 46.4 °F 42.9 °F 28.4 °F 50% 30.12 in 10.0 mi South 6.9 mph - N/A   Clear
5:35 PM 46.4 °F 44.3 °F 30.2 °F 53% 30.12 in 10.0 mi South 4.6 mph - N/A   Clear
5:55 PM 44.6 °F 42.2 °F 30.2 °F 57% 30.12 in 10.0 mi South 4.6 mph - N/A   Clear
6:15 PM 44.6 °F 40.7 °F 30.2 °F 57% 30.12 in 10.0 mi South 6.9 mph - N/A   Clear
6:35 PM 44.6 °F 43.1 °F 30.2 °F 57% 30.11 in 10.0 mi South 3.5 mph - N/A   Clear
6:55 PM 44.6 °F 41.4 °F 30.2 °F 57% 30.10 in 10.0 mi South 5.8 mph - N/A   Clear
7:15 PM 44.6 °F 41.4 °F 30.2 °F 57% 30.10 in 10.0 mi South 5.8 mph - N/A   Clear
7:35 PM 44.6 °F 41.4 °F 30.2 °F 57% 30.10 in 10.0 mi SSE 5.8 mph - N/A   Clear
7:55 PM 44.6 °F 43.1 °F 30.2 °F 57% 30.10 in 10.0 mi SSE 3.5 mph - N/A   Clear
8:15 PM 42.8 °F 41.1 °F 30.2 °F 61% 30.10 in 10.0 mi SSE 3.5 mph - N/A   Clear
8:35 PM 42.8 °F 41.1 °F 30.2 °F 61% 30.08 in 10.0 mi SSE 3.5 mph - N/A   Clear
8:55 PM 42.8 °F - 32.0 °F 66% 30.08 in 10.0 mi Calm Calm - N/A   Clear
9:35 PM 42.8 °F 39.3 °F 32.0 °F 66% 30.06 in 10.0 mi South 5.8 mph - N/A   Clear
9:55 PM 42.8 °F - 32.0 °F 66% 30.05 in 10.0 mi Calm Calm - N/A   Clear
10:15 PM 42.8 °F 41.1 °F 32.0 °F 66% 30.05 in 10.0 mi South 3.5 mph - N/A   Clear
10:35 PM 39.2 °F - 32.0 °F 75% 30.04 in 10.0 mi Calm Calm - N/A   Clear
10:55 PM 41.0 °F 39.0 °F 33.8 °F 76% 30.03 in 10.0 mi SW 3.5 mph - N/A   Clear
11:15 PM 41.0 °F 39.0 °F 33.8 °F 76% 30.02 in 10.0 mi SW 3.5 mph - N/A   Clear
11:35 PM 42.8 °F - 33.8 °F 70% 30.02 in 10.0 mi Calm Calm - N/A   Clear
11:55 PM 41.0 °F 39.0 °F 32.0 °F 70% 30.01 in 10.0 mi SSW 3.5 mph - N/A   Clear